Weather History for Garrison, ND

Change the Weather History Date:

Thursday, August 29, 2013

  Actual Average Record
Temperature  
Mean Temperature 74 °F -  
Max Temperature 84 °F 79 °F 102 °F (2012)
Min Temperature 64 °F 51 °F 9 °F (1996)
Cooling Degree Days 9    
Month to date cooling degree days 138  
Year to date cooling degree days 299  
Since 1 June cooling degree days 293  
Growing Degree Days 24 (Base 50)    
Moisture  
Dew Point 66 °F    
Average Humidity 76    
Maximum Humidity 100    
Minimum Humidity 51    
Precipitation  
Precipitation 0.57 in - - ()
Month to date precipitation 3.42  
Year to date precipitation 22.27  
Sea Level Pressure  
Sea Level Pressure 29.90 in    
Wind  
Wind Speed 7 mph (North)    
Max Wind Speed 33 mph    
Max Gust Speed 49 mph    
Averages and records for this station are not official NWS values.
T = Trace of Precipitation, MM = Missing Value Source: NWS Daily Summary

Daily Weather History Graph

Daily Weather History Graph

Search for Another Location

Airport:

Trip Planner

Search our weather history database for the weather conditions in past years. The results will help you decide how hot, cold, wet, or windy it might be!

Date:

Astronomy

Aug. 29, 2013 Rise Set
Actual Time 7:00 AM CDT 8:31 PM CDT
Civil Twilight 6:28 AM CDT 9:03 PM CDT
Nautical Twilight 5:49 AM CDT 9:42 PM CDT
Astronomical Twilight 5:06 AM CDT 10:24 PM CDT
Moon 12:40 AM CDT (8/29) 4:15 PM CDT (8/29)
Length of Visible Light 14h 35m
Length of Day
13h 30m
Last Quarter, 38% of the Moon is Illuminated
Aug 29
Last Quarter
Sep 5
New
Sep 12
First Quarter
Sep 19
Full
Sep 26
Last Quarter

Hourly Weather History & Observations

Time (CDT) Temp. Heat Index Dew Point Humidity Pressure Visibility Wind Dir Wind Speed Gust Speed Precip Events Conditions
12:52 AM 73.0 °F - 66.0 °F 79% 29.86 in - Calm Calm - N/A   Unknown
1:52 AM 72.0 °F - 66.0 °F 81% 29.84 in - SE 6.9 mph - N/A   Unknown
2:52 AM 72.0 °F - 66.9 °F 84% 29.79 in - East 5.8 mph - N/A   Unknown
3:19 AM 68.0 °F - 66.9 °F 96% 29.91 in - NW 11.5 mph 35.7 mph 0.47 in   Unknown
3:52 AM 68.0 °F - 66.9 °F 96% 29.90 in - South 11.5 mph - 0.54 in   Unknown
4:52 AM 68.0 °F - 66.9 °F 96% 29.78 in - NE 3.5 mph - 0.03 in   Unknown
5:52 AM 66.0 °F - 66.0 °F 100% 29.84 in - Calm Calm - N/A   Unknown
6:52 AM 64.9 °F - 64.0 °F 97% 29.86 in - NNW 6.9 mph - N/A   Unknown
7:52 AM 66.0 °F - 66.0 °F 100% 29.87 in - NW 6.9 mph - N/A   Unknown
8:52 AM 70.0 °F - 66.9 °F 90% 29.88 in - NNW 5.8 mph - N/A   Unknown
9:52 AM 73.0 °F - 68.0 °F 84% 29.90 in - NW 8.1 mph - N/A   Unknown
10:52 AM 75.9 °F - 66.9 °F 74% 29.91 in - NW 8.1 mph - N/A   Unknown
11:52 AM 77.0 °F - 66.9 °F 71% 29.92 in - NNW 8.1 mph - N/A   Unknown
12:52 PM 79.0 °F - 66.9 °F 66% 29.92 in - North 3.5 mph - N/A   Unknown
1:52 PM 80.1 °F 82.7 °F 68.0 °F 67% 29.93 in - NNW 10.4 mph 16.1 mph N/A   Unknown
2:52 PM 81.0 °F 83.3 °F 66.9 °F 62% 29.92 in - NNW 10.4 mph - N/A   Unknown
3:52 PM 82.9 °F 85.0 °F 66.0 °F 56% 29.92 in - NNW 11.5 mph - N/A   Unknown
4:52 PM 84.0 °F 85.8 °F 64.9 °F 53% 29.93 in - NW 10.4 mph - N/A   Unknown
5:52 PM 84.0 °F 85.8 °F 64.9 °F 53% 29.93 in - NNW 10.4 mph - N/A   Unknown
6:52 PM 82.9 °F 85.0 °F 66.0 °F 56% 29.94 in - NNE 6.9 mph - N/A   Unknown
7:52 PM 80.1 °F 82.1 °F 66.0 °F 62% 29.96 in - NNE 3.5 mph - N/A   Unknown
8:52 PM 75.0 °F - 66.9 °F 76% 29.96 in - Calm Calm - N/A   Unknown
9:52 PM 71.1 °F - 66.0 °F 84% 29.98 in - Calm Calm - N/A   Unknown
10:52 PM 70.0 °F - 66.0 °F 87% 29.97 in - NE 3.5 mph - N/A   Unknown
11:52 PM 68.0 °F - 64.9 °F 90% 29.98 in - North 3.5 mph - N/A   Unknown